EUTELSAT 117 WEST B

Last updated on Sat Jun 21 2025 00:02:45 GMT+0000 (Coordinated Universal Time)

1 41589U 16038B 25171.55078841 -.00000001 00000+0 00000+0 0 9999 2 41589 0.0036 202.3268 0000223 233.7002 274.2733 1.00273371 33036
UTC large
Height (km)
Speed (km/s)
/
Latitude / Longitude
Inclination (degrees)
Orbital Period (minutes)
Azimuth
Elevation
Range (km)
Doppler Factor

Next 0 passes for location: London (51.5072 / 0.1276)

Sorry there are no passes over London.